Location: Oberkirch
(48.5323°N, 8.0787°E)
Time: 00:31:30
(UTC+00:00)

CUTE 1.7 + AOD 2 - Pass Details

Date: 22 March 2026
Orbit: 535 x 545 km, 97.8° (Epoch: 14 April)

Event Time Altitude Azimuth Distance (km) Brightness Sun altitude
Rises 04:55:31 0° 3° (N) 2,724 ? -6.0°
Reaches altitude 10° 04:57:54 10° 350° (N) 1,826 ? -5.6°
Maximum altitude 05:01:10 25° 294° (WNW) 1,124 ? -5.1°
Drops below altitude 10° 05:04:24 10° 239° (WSW) 1,815 ? -4.5°
Sets 05:06:46 0° 226° (SW) 2,703 ? -4.1°
